owner,sensor,date,latitude,longitude,vertical_datum,sea_water_temperature,qcFlag
BP,ioos:station:wmo:42369:3,2021-06-03T23:00:00Z,29.2535,-90.6610,1.1,65.3,11144222
BP,ioos:station:wmo:42369:3,2021-06-04T00:00:00Z,29.2535,-90.6610,0.6,65.3,11144222
BP,ioos:station:wmo:42369:3,2021-06-04T00:20:00Z,29.2535,-90.6610,0.7,65.5,11144222
BP,ioos:station:wmo:42369:3,2021-06-04T00:40:00Z,29.2535,-90.6610,0.5,65.5,11144222
BP,ioos:station:wmo:42369:3,2021-06-04T01:00:00Z,29.2535,-90.6610,0.5,65.6,11144222
BP,ioos:station:wmo:42369:3,2021-06-04T01:20:00Z,29.2535,-90.6610,0.8,65.8,11144222
BP,ioos:station:wmo:42369:3,2021-06-04T01:40:00Z,29.2535,-90.6609,1.1,65.9,11144222
BP,ioos:station:wmo:42369:3,2021-06-04T02:00:00Z,29.2535,-90.6609,0.8,66.0,11144222
BP,ioos:station:wmo:42369:3,2021-06-04T02:20:00Z,29.2535,-90.6609,1.0,66.0,11144222
BP,ioos:station:wmo:42369:3,2021-06-04T02:40:00Z,29.2535,-90.6609,0.7,66.0,11144222
BP,ioos:station:wmo:42369:3,2021-06-04T03:00:00Z,29.2535,-90.6610,0.6,66.0,11144222
BP,ioos:station:wmo:42369:3,2021-06-04T03:20:00Z,29.2535,-90.6609,1.3,66.0,11144222
BP,ioos:station:wmo:42369:3,2021-06-04T03:40:00Z,29.2535,-90.6609,1.0,66.0,11144222
BP,ioos:station:wmo:42369:3,2021-06-04T04:00:00Z,29.2535,-90.6610,0.7,66.0,11144222
BP,ioos:station:wmo:42369:3,2021-06-04T04:20:00Z,29.2535,-90.6610,1.5,66.0,11144222
BP,ioos:station:wmo:42369:3,2021-06-04T04:40:00Z,29.2535,-90.6610,1.4,66.0,11144222
BP,ioos:station:wmo:42369:3,2021-06-04T05:00:00Z,29.2535,-90.6610,1.2,66.0,11144222
BP,ioos:station:wmo:42369:3,2021-06-04T05:20:00Z,29.2535,-90.6610,0.9,66.1,11144222
BP,ioos:station:wmo:42369:3,2021-06-04T05:40:00Z,29.2535,-90.6610,1.2,66.1,11144222
BP,ioos:station:wmo:42369:3,2021-06-04T06:00:00Z,29.2535,-90.6610,1.1,66.1,11144222
BP,ioos:station:wmo:42369:3,2021-06-04T06:20:00Z,29.2535,-90.6610,0.6,66.1,11144222
BP,ioos:station:wmo:42369:3,2021-06-04T06:40:00Z,29.2535,-90.6610,1.4,66.1,11144222
BP,ioos:station:wmo:42369:3,2021-06-04T07:00:00Z,29.2535,-90.6610,0.8,66.1,11144222
BP,ioos:station:wmo:42369:3,2021-06-04T07:20:00Z,29.2535,-90.6610,1.0,66.1,11144222
BP,ioos:station:wmo:42369:3,2021-06-04T07:40:00Z,29.2535,-90.6610,1.3,66.1,11144222
BP,ioos:station:wmo:42369:3,2021-06-04T08:00:00Z,29.2535,-90.6610,0.5,66.1,11144222
BP,ioos:station:wmo:42369:3,2021-06-04T08:20:00Z,29.2535,-90.6610,0.9,66.1,11144222
BP,ioos:station:wmo:42369:3,2021-06-04T08:40:00Z,29.2535,-90.6610,1.0,66.1,11144222
BP,ioos:station:wmo:42369:3,2021-06-04T09:00:00Z,29.2535,-90.6610,0.9,66.1,11144222
BP,ioos:station:wmo:42369:3,2021-06-04T09:20:00Z,29.2535,-90.6610,1.0,66.2,11144222
BP,ioos:station:wmo:42369:3,2021-06-04T09:40:00Z,29.2535,-90.6610,0.5,66.3,11144222
BP,ioos:station:wmo:42369:3,2021-06-04T10:00:00Z,29.2535,-90.6610,0.2,66.3,11144222
BP,ioos:station:wmo:42369:3,2021-06-04T10:20:00Z,29.2535,-90.6610,0.8,66.3,11144222
BP,ioos:station:wmo:42369:3,2021-06-04T10:40:00Z,29.2535,-90.6610,0.7,66.3,11144222
BP,ioos:station:wmo:42369:3,2021-06-04T11:00:00Z,29.2535,-90.6610,0.7,66.3,11144222
BP,ioos:station:wmo:42369:3,2021-06-04T11:20:00Z,29.2535,-90.6610,0.4,66.3,11144222
BP,ioos:station:wmo:42369:3,2021-06-04T11:40:00Z,29.2535,-90.6610,1.0,66.3,11144222
BP,ioos:station:wmo:42369:3,2021-06-04T12:00:00Z,29.2535,-90.6610,1.6,66.3,11144222
BP,ioos:station:wmo:42369:3,2021-06-04T12:20:00Z,29.2535,-90.6610,0.3,66.3,11144222
BP,ioos:station:wmo:42369:3,2021-06-04T12:40:00Z,29.2535,-90.6610,0.2,66.3,11144222
BP,ioos:station:wmo:42369:3,2021-06-04T13:00:00Z,29.2535,-90.6610,0.7,66.2,11144222
BP,ioos:station:wmo:42369:3,2021-06-04T13:20:00Z,29.2535,-90.6610,1.0,66.2,11144222
BP,ioos:station:wmo:42369:3,2021-06-04T13:40:00Z,29.2535,-90.6610,0.9,66.2,11144222
BP,ioos:station:wmo:42369:3,2021-06-04T14:00:00Z,29.2535,-90.6610,0.4,66.1,11144222
BP,ioos:station:wmo:42369:3,2021-06-04T14:20:00Z,29.2535,-90.6610,1.1,66.1,11144222
BP,ioos:station:wmo:42369:3,2021-06-04T14:40:00Z,29.2535,-90.6610,1.1,66.1,11144222
BP,ioos:station:wmo:42369:3,2021-06-04T15:00:00Z,29.2535,-90.6610,0.8,66.1,11144222
BP,ioos:station:wmo:42369:3,2021-06-04T15:20:00Z,29.2535,-90.6610,1.0,66.1,11144222
BP,ioos:station:wmo:42369:3,2021-06-04T15:40:00Z,29.2535,-90.6610,1.2,66.1,11144222
BP,ioos:station:wmo:42369:3,2021-06-04T16:00:00Z,29.2535,-90.6610,0.8,66.0,11144222
BP,ioos:station:wmo:42369:3,2021-06-04T16:20:00Z,29.2535,-90.6610,1.0,66.0,11144222
BP,ioos:station:wmo:42369:3,2021-06-04T16:40:00Z,29.2535,-90.6610,0.7,66.0,11144222
BP,ioos:station:wmo:42369:3,2021-06-04T17:00:00Z,29.2535,-90.6610,0.7,66.0,11144222
BP,ioos:station:wmo:42369:3,2021-06-04T17:20:00Z,29.2535,-90.6609,1.1,65.9,11144222
BP,ioos:station:wmo:42369:3,2021-06-04T17:40:00Z,29.2535,-90.6609,1.4,66.0,11144222
BP,ioos:station:wmo:42369:3,2021-06-04T18:00:00Z,29.2535,-90.6610,0.8,66.0,11144222
BP,ioos:station:wmo:42369:3,2021-06-04T18:20:00Z,29.2535,-90.6610,1.7,66.0,11144222
BP,ioos:station:wmo:42369:3,2021-06-04T18:40:00Z,29.2535,-90.6610,0.8,66.1,11144222
BP,ioos:station:wmo:42369:3,2021-06-04T19:00:00Z,29.2535,-90.6610,1.1,66.0,11144222
BP,ioos:station:wmo:42369:3,2021-06-04T19:20:00Z,29.2535,-90.6610,1.0,66.0,11144222
BP,ioos:station:wmo:42369:3,2021-06-04T19:40:00Z,29.2535,-90.6610,1.0,66.0,11144222
BP,ioos:station:wmo:42369:3,2021-06-04T20:00:00Z,29.2535,-90.6610,1.1,66.0,11144222
BP,ioos:station:wmo:42369:3,2021-06-04T20:20:00Z,29.2535,-90.6610,0.6,65.9,11144222
BP,ioos:station:wmo:42369:3,2021-06-04T20:40:00Z,29.2535,-90.6609,0.7,65.9,11144222
BP,ioos:station:wmo:42369:3,2021-06-23T00:40:00Z,29.2535,-90.6610,0.3,65.9,11144222
BP,ioos:station:wmo:42369:3,2021-06-23T01:00:00Z,29.2536,-90.6610,1.4,66.0,11144222
BP,ioos:station:wmo:42369:3,2021-06-23T01:20:00Z,29.2536,-90.6610,0.6,66.0,11144222
BP,ioos:station:wmo:42369:3,2021-06-23T01:40:00Z,29.2536,-90.6610,0.9,66.0,11144222
BP,ioos:station:wmo:42369:3,2021-06-23T02:00:00Z,29.2535,-90.6610,1.1,66.1,11144222
BP,ioos:station:wmo:42369:3,2021-06-23T02:20:00Z,29.2535,-90.6610,1.3,66.1,11144222
BP,ioos:station:wmo:42369:3,2021-06-23T02:40:00Z,29.2536,-90.6610,1.1,66.1,11144222
BP,ioos:station:wmo:42369:3,2021-06-23T03:00:00Z,29.2535,-90.6610,1.0,66.1,11144222
BP,ioos:station:wmo:42369:3,2021-06-23T03:20:00Z,29.2536,-90.6610,0.8,66.1,11144222
BP,ioos:station:wmo:42369:3,2021-06-23T03:40:00Z,29.2535,-90.6610,1.6,66.2,11144222
BP,ioos:station:wmo:42369:3,2021-06-23T04:00:00Z,29.2535,-90.6610,0.9,66.2,11144222
BP,ioos:station:wmo:42369:3,2021-06-23T04:20:00Z,29.2536,-90.6610,1.2,66.2,11144222
BP,ioos:station:wmo:42369:3,2021-06-23T04:40:00Z,29.2536,-90.6610,0.4,66.2,11144222
BP,ioos:station:wmo:42369:3,2021-06-23T05:00:00Z,29.2536,-90.6610,1.8,66.2,11144222
BP,ioos:station:wmo:42369:3,2021-06-23T05:20:00Z,29.2536,-90.6610,0.7,66.1,11144222
BP,ioos:station:wmo:42369:3,2021-06-23T05:40:00Z,29.2536,-90.6610,0.8,66.2,11144222
BP,ioos:station:wmo:42369:3,2021-06-23T06:00:00Z,29.2536,-90.6610,1.4,66.2,11144222
BP,ioos:station:wmo:42369:3,2021-06-23T06:20:00Z,29.2536,-90.6610,0.9,66.2,11144222
BP,ioos:station:wmo:42369:3,2021-06-23T06:40:00Z,29.2536,-90.6610,1.5,66.2,11144222
BP,ioos:station:wmo:42369:3,2021-06-23T07:00:00Z,29.2536,-90.6610,1.2,66.3,11144222
BP,ioos:station:wmo:42369:3,2021-06-23T07:20:00Z,29.2536,-90.6610,1.3,66.3,11144222
BP,ioos:station:wmo:42369:3,2021-06-23T22:20:00Z,29.2536,-90.6610,1.2,65.5,11144222
BP,ioos:station:wmo:42369:3,2021-06-24T00:00:00Z,29.2536,-90.6610,1.2,65.6,11144222
BP,ioos:station:wmo:42369:3,2021-06-24T01:00:00Z,29.2535,-90.6610,0.5,65.7,11144222
BP,ioos:station:wmo:42369:3,2021-06-24T02:00:00Z,29.2535,-90.6610,0.7,65.8,11144222
BP,ioos:station:wmo:42369:3,2021-06-24T05:00:00Z,29.2536,-90.6610,1.2,66.0,11144222
BP,ioos:station:wmo:42369:3,2021-06-24T06:00:00Z,29.2536,-90.6610,1.8,66.0,11144222
BP,ioos:station:wmo:42369:3,2021-06-24T11:00:00Z,29.2536,-90.6610,0.2,66.2,11144222
BP,ioos:station:wmo:42369:3,2021-06-24T18:20:00Z,29.2536,-90.6610,0.6,65.9,11144222
BP,ioos:station:wmo:42369:3,2021-06-24T23:20:00Z,29.2536,-90.6610,0.4,65.7,11144222
BP,ioos:station:wmo:42369:3,2021-06-25T00:20:00Z,29.2536,-90.6610,0.7,65.8,11144222
BP,ioos:station:wmo:42369:3,2021-06-25T02:40:00Z,29.2535,-90.6610,1.3,65.9,11144222
BP,ioos:station:wmo:42369:3,2021-06-25T03:00:00Z,29.2535,-90.6610,1.2,65.9,11144222
BP,ioos:station:wmo:42369:3,2021-06-25T05:20:00Z,29.2535,-90.6610,1.3,66.0,11144222
BP,ioos:station:wmo:42369:3,2021-06-25T06:20:00Z,29.2535,-90.6610,0.7,66.1,11144222
BP,ioos:station:wmo:42369:3,2021-06-25T07:00:00Z,29.2536,-90.6610,0.6,66.1,11144222
BP,ioos:station:wmo:42369:3,2021-06-25T08:00:00Z,29.2535,-90.6610,0.7,66.2,11144222
BP,ioos:station:wmo:42369:3,2021-06-25T08:20:00Z,29.2536,-90.6610,1.6,66.1,11144222
BP,ioos:station:wmo:42369:3,2021-06-25T11:00:00Z,29.2536,-90.6610,1.5,66.2,11144222
BP,ioos:station:wmo:42369:3,2021-06-25T15:40:00Z,29.2536,-90.6610,0.9,66.2,11144222
BP,ioos:station:wmo:42369:3,2021-06-25T17:40:00Z,29.2537,-90.6610,1.0,65.9,11144222
BP,ioos:station:wmo:42369:3,2021-06-25T21:40:00Z,29.2537,-90.6610,1.2,66.2,11144222
BP,ioos:station:wmo:42369:3,2021-06-25T22:20:00Z,29.2489,-90.6668,1.6,66.2,11144222
BP,ioos:station:wmo:42369:3,2021-06-25T22:40:00Z,29.1837,-90.6095,1.1,66.3,11144222
BP,ioos:station:wmo:42369:3,2021-06-25T23:00:00Z,29.1439,-90.5927,1.1,66.2,11144222
BP,ioos:station:wmo:42369:3,2021-06-25T23:20:00Z,29.0982,-90.5770,1.3,66.3,11144222
BP,ioos:station:wmo:42369:3,2021-06-25T23:40:00Z,29.0457,-90.5745,1.0,66.4,11144222
BP,ioos:station:wmo:42369:3,2021-06-26T00:00:00Z,28.9954,-90.5651,0.7,66.4,11144222
BP,ioos:station:wmo:42369:3,2021-06-26T00:20:00Z,28.9470,-90.5570,1.6,66.4,11144222
BP,ioos:station:wmo:42369:3,2021-06-26T00:40:00Z,28.8979,-90.5485,1.0,66.3,11144222
BP,ioos:station:wmo:42369:3,2021-06-26T01:00:00Z,28.8484,-90.5392,1.4,66.4,11144222
BP,ioos:station:wmo:42369:3,2021-06-26T01:20:00Z,28.7990,-90.5308,1.2,66.4,11144222
BP,ioos:station:wmo:42369:3,2021-06-26T01:40:00Z,28.7510,-90.5243,1.3,66.4,11144222
BP,ioos:station:wmo:42369:3,2021-06-26T02:00:00Z,28.7035,-90.5192,1.3,66.3,11144222
BP,ioos:station:wmo:42369:3,2021-06-26T02:20:00Z,28.6562,-90.5133,0.9,66.3,11144222
BP,ioos:station:wmo:42369:3,2021-06-26T02:40:00Z,28.6079,-90.5018,1.2,66.3,11144222
BP,ioos:station:wmo:42369:3,2021-06-26T03:00:00Z,28.5584,-90.4908,1.1,66.4,11144222
BP,ioos:station:wmo:42369:3,2021-06-26T03:20:00Z,28.5087,-90.4805,1.2,66.4,11144222
BP,ioos:station:wmo:42369:3,2021-06-26T03:40:00Z,28.4587,-90.4735,1.6,66.4,11144222
BP,ioos:station:wmo:42369:3,2021-06-26T04:00:00Z,28.4090,-90.4673,1.9,66.4,11144222
BP,ioos:station:wmo:42369:3,2021-06-26T04:20:00Z,28.3842,-90.4647,1.3,66.3,11144222
BP,ioos:station:wmo:42369:3,2021-06-26T04:40:00Z,28.3842,-90.4647,0.5,66.3,11144222
BP,ioos:station:wmo:42369:3,2021-06-26T05:00:00Z,28.2634,-90.4492,1.1,66.3,11144222
BP,ioos:station:wmo:42369:3,2021-06-26T05:20:00Z,28.2150,-90.4424,1.1,66.3,11144222
BP,ioos:station:wmo:42369:3,2021-06-26T05:40:00Z,28.1663,-90.4347,1.5,66.3,11144222
BP,ioos:station:wmo:42369:3,2021-06-26T06:00:00Z,28.1183,-90.4271,1.4,66.3,11144222
BP,ioos:station:wmo:42369:3,2021-06-26T06:20:00Z,28.0712,-90.4196,1.3,66.3,11144222
BP,ioos:station:wmo:42369:3,2021-06-26T06:40:00Z,28.0244,-90.4121,1.1,66.3,11144222
BP,ioos:station:wmo:42369:3,2021-06-26T07:00:00Z,27.9775,-90.4047,1.1,66.3,11144222
BP,ioos:station:wmo:42369:3,2021-06-26T07:20:00Z,27.9298,-90.3970,1.1,66.3,11144222
BP,ioos:station:wmo:42369:3,2021-06-26T07:40:00Z,27.8816,-90.3893,1.4,66.3,11144222
BP,ioos:station:wmo:42369:3,2021-06-26T08:00:00Z,27.8333,-90.3817,2.0,66.3,11144222
BP,ioos:station:wmo:42369:3,2021-06-26T08:20:00Z,27.7851,-90.3740,1.5,66.3,11144222
BP,ioos:station:wmo:42369:3,2021-06-26T08:40:00Z,27.7369,-90.3664,1.0,66.3,11144222
BP,ioos:station:wmo:42369:3,2021-06-26T09:00:00Z,27.6887,-90.3587,1.3,66.3,11144222
BP,ioos:station:wmo:42369:3,2021-06-26T09:20:00Z,27.6399,-90.3510,1.5,66.3,11144222
BP,ioos:station:wmo:42369:3,2021-06-26T09:40:00Z,27.5907,-90.3432,1.3,66.3,11144222
BP,ioos:station:wmo:42369:3,2021-06-26T10:00:00Z,27.5410,-90.3353,1.0,66.2,11144222
BP,ioos:station:wmo:42369:3,2021-06-26T10:20:00Z,27.4914,-90.3275,1.1,66.2,11144222
BP,ioos:station:wmo:42369:3,2021-06-26T10:40:00Z,27.4418,-90.3196,0.8,66.3,11144222
BP,ioos:station:wmo:42369:3,2021-06-26T11:00:00Z,27.3914,-90.3116,1.2,66.3,11144222
BP,ioos:station:wmo:42369:3,2021-06-26T11:20:00Z,27.3402,-90.3036,1.1,66.2,11144222
BP,ioos:station:wmo:42369:3,2021-06-26T11:40:00Z,27.2889,-90.2955,0.9,66.2,11144222
BP,ioos:station:wmo:42369:3,2021-06-26T12:00:00Z,27.2349,-90.2870,1.4,66.2,11144222
BP,ioos:station:wmo:42369:3,2021-06-26T12:20:00Z,27.2075,-90.2841,1.1,66.2,11144222
BP,ioos:station:wmo:42369:3,2021-06-26T12:40:00Z,27.1944,-90.2756,0.4,66.2,11144222
BP,ioos:station:wmo:42369:3,2021-06-26T13:00:00Z,27.1898,-90.2817,1.1,66.2,11144222
BP,ioos:station:wmo:42369:3,2021-06-26T13:20:00Z,27.1977,-90.2938,1.0,66.2,11144222
BP,ioos:station:wmo:42369:3,2021-06-26T13:40:00Z,27.1993,-90.2977,1.1,66.2,11144222
BP,ioos:station:wmo:42369:3,2021-06-26T14:00:00Z,27.2024,-90.3020,1.3,66.4,11144222
BP,ioos:station:wmo:42369:3,2021-06-26T14:20:00Z,27.2294,-90.3543,1.6,66.4,11144222
BP,ioos:station:wmo:42369:3,2021-06-26T15:00:00Z,27.2029,-90.2880,1.1,66.3,11144222
BP,ioos:station:wmo:42369:3,2021-06-26T15:20:00Z,27.2029,-90.2881,0.6,66.2,11144222
BP,ioos:station:wmo:42369:3,2021-06-26T15:40:00Z,27.2029,-90.2881,1.3,66.2,11144222
BP,ioos:station:wmo:42369:3,2021-06-26T16:00:00Z,27.2048,-90.2889,1.1,66.1,11144222
BP,ioos:station:wmo:42369:3,2021-06-26T16:20:00Z,27.2047,-90.2889,1.0,66.1,11144222
BP,ioos:station:wmo:42369:3,2021-06-26T16:40:00Z,27.2047,-90.2889,0.6,65.9,11144222
BP,ioos:station:wmo:42369:3,2021-06-26T17:00:00Z,27.2046,-90.2889,0.5,65.9,11144222
BP,ioos:station:wmo:42369:3,2021-06-26T17:20:00Z,27.2046,-90.2889,0.9,65.9,11144222
BP,ioos:station:wmo:42369:3,2021-06-26T17:40:00Z,27.2046,-90.2889,0.9,65.8,11144222
BP,ioos:station:wmo:42369:3,2021-06-26T18:00:00Z,27.2045,-90.2889,0.7,65.8,11144222
BP,ioos:station:wmo:42369:3,2021-06-26T18:20:00Z,27.2044,-90.2889,0.5,65.8,11144222
BP,ioos:station:wmo:42369:3,2021-06-26T18:40:00Z,27.2044,-90.2889,0.2,65.8,11144222
BP,ioos:station:wmo:42369:3,2021-06-26T19:00:00Z,27.2043,-90.2889,1.9,66.0,11144222
BP,ioos:station:wmo:42369:3,2021-06-26T19:20:00Z,27.2043,-90.2889,1.6,66.2,11144222
BP,ioos:station:wmo:42369:3,2021-06-26T19:40:00Z,27.2043,-90.2889,1.2,66.2,11144222
BP,ioos:station:wmo:42369:3,2021-06-26T20:00:00Z,27.2043,-90.2889,2.1,66.2,11144222
BP,ioos:station:wmo:42369:3,2021-06-26T20:20:00Z,27.2042,-90.2888,1.9,66.2,11144222
BP,ioos:station:wmo:42369:3,2021-06-26T20:40:00Z,27.2042,-90.2888,1.4,66.2,11144222
BP,ioos:station:wmo:42369:3,2021-06-26T21:00:00Z,27.2042,-90.2888,440.9,66.6,11144222
BP,ioos:station:wmo:42369:3,2021-06-26T21:20:00Z,27.2042,-90.2888,447.3,67.7,11144222
BP,ioos:station:wmo:42369:3,2021-06-26T21:40:00Z,27.2040,-90.2888,448.1,68.0,11144222
BP,ioos:station:wmo:42369:3,2021-06-26T22:00:00Z,27.2040,-90.2888,446.8,68.2,11144222
BP,ioos:station:wmo:42369:3,2021-06-26T22:20:00Z,27.2040,-90.2888,447.5,68.2,11144222
BP,ioos:station:wmo:42369:3,2021-06-26T23:00:00Z,27.2028,-90.2881,447.1,68.2,11144222
BP,ioos:station:wmo:42369:3,2021-06-26T23:40:00Z,27.2026,-90.2879,447.5,68.3,11144222
BP,ioos:station:wmo:42369:3,2021-06-27T00:00:00Z,27.2024,-90.2877,447.2,68.3,11144222
BP,ioos:station:wmo:42369:3,2021-06-27T00:20:00Z,27.2023,-90.2877,446.8,68.3,11144222
BP,ioos:station:wmo:42369:3,2021-06-27T00:40:00Z,27.2022,-90.2877,446.9,68.4,11144222
BP,ioos:station:wmo:42369:3,2021-06-27T01:00:00Z,27.2020,-90.2877,446.7,68.3,11144222
BP,ioos:station:wmo:42369:3,2021-06-27T01:20:00Z,27.2020,-90.2876,447.8,68.3,11144222
BP,ioos:station:wmo:42369:3,2021-06-27T01:40:00Z,27.2018,-90.2874,446.8,68.3,11144222
BP,ioos:station:wmo:42369:3,2021-06-27T02:00:00Z,27.2018,-90.2876,447.0,68.3,11144222
BP,ioos:station:wmo:42369:3,2021-06-27T02:20:00Z,27.2017,-90.2876,447.2,68.3,11144222
BP,ioos:station:wmo:42369:3,2021-06-27T02:40:00Z,27.2018,-90.2878,448.4,68.3,11144222
BP,ioos:station:wmo:42369:3,2021-06-27T03:00:00Z,27.2019,-90.2878,448.0,68.3,11144222
BP,ioos:station:wmo:42369:3,2021-06-27T03:20:00Z,27.2021,-90.2880,447.2,68.3,11144222
BP,ioos:station:wmo:42369:3,2021-06-27T03:40:00Z,27.2027,-90.2884,447.7,68.3,11144222
BP,ioos:station:wmo:42369:3,2021-06-27T04:00:00Z,27.2029,-90.2885,447.1,68.3,11144222
BP,ioos:station:wmo:42369:3,2021-06-27T04:20:00Z,27.2031,-90.2886,447.0,68.3,11144222
BP,ioos:station:wmo:42369:3,2021-06-27T04:40:00Z,27.2034,-90.2887,446.9,68.4,11144222
BP,ioos:station:wmo:42369:3,2021-06-27T05:00:00Z,27.2037,-90.2888,448.1,68.3,11144222
BP,ioos:station:wmo:42369:3,2021-06-27T05:20:00Z,27.2040,-90.2890,447.3,68.3,11144222
BP,ioos:station:wmo:42369:3,2021-06-27T05:40:00Z,27.2043,-90.2892,447.3,68.3,11144222
BP,ioos:station:wmo:42369:3,2021-06-27T06:00:00Z,27.2045,-90.2893,447.5,68.3,11144222
BP,ioos:station:wmo:42369:3,2021-06-27T06:20:00Z,27.2049,-90.2893,446.7,68.3,11144222
BP,ioos:station:wmo:42369:3,2021-06-27T06:40:00Z,27.2053,-90.2891,447.1,68.3,11144222
BP,ioos:station:wmo:42369:3,2021-06-27T07:00:00Z,27.2053,-90.2890,447.0,68.3,11144222
BP,ioos:station:wmo:42369:3,2021-06-27T07:20:00Z,27.2054,-90.2889,446.1,68.3,11144222
BP,ioos:station:wmo:42369:3,2021-06-27T07:40:00Z,27.2054,-90.2888,447.6,68.3,11144222
BP,ioos:station:wmo:42369:3,2021-06-27T08:00:00Z,27.2055,-90.2889,446.8,68.3,11144222
BP,ioos:station:wmo:42369:3,2021-06-27T08:20:00Z,27.2055,-90.2888,447.1,68.3,11144222
BP,ioos:station:wmo:42369:3,2021-06-27T08:40:00Z,27.2055,-90.2887,448.2,68.3,11144222
BP,ioos:station:wmo:42369:3,2021-06-27T09:00:00Z,27.2056,-90.2887,448.1,68.3,11144222
BP,ioos:station:wmo:42369:3,2021-06-27T09:20:00Z,27.2057,-90.2887,446.9,68.3,11144222
BP,ioos:station:wmo:42369:3,2021-06-27T09:40:00Z,27.2060,-90.2885,447.4,68.3,11144222
BP,ioos:station:wmo:42369:3,2021-06-27T10:00:00Z,27.2062,-90.2882,447.7,68.3,11144222
BP,ioos:station:wmo:42369:3,2021-06-27T10:20:00Z,27.2065,-90.2881,447.4,68.3,11144222
BP,ioos:station:wmo:42369:3,2021-06-27T10:40:00Z,27.2068,-90.2881,447.1,68.3,11144222
BP,ioos:station:wmo:42369:3,2021-06-27T11:00:00Z,27.2067,-90.2882,447.7,68.3,11144222
BP,ioos:station:wmo:42369:3,2021-06-27T11:20:00Z,27.2064,-90.2881,447.1,68.3,11144222
BP,ioos:station:wmo:42369:3,2021-06-27T11:40:00Z,27.2060,-90.2879,446.8,68.3,11144222
BP,ioos:station:wmo:42369:3,2021-06-27T12:00:00Z,27.2060,-90.2878,448.1,68.3,11144222
BP,ioos:station:wmo:42369:3,2021-06-27T12:20:00Z,27.2058,-90.2875,447.5,68.3,11144222
BP,ioos:station:wmo:42369:3,2021-06-27T12:40:00Z,27.2057,-90.2876,447.2,68.3,11144222
BP,ioos:station:wmo:42369:3,2021-06-27T13:00:00Z,27.2053,-90.2877,447.8,68.3,11144222
BP,ioos:station:wmo:42369:3,2021-06-27T13:20:00Z,27.2051,-90.2876,447.6,68.3,11144222
BP,ioos:station:wmo:42369:3,2021-06-27T13:40:00Z,27.2050,-90.2872,447.9,68.3,11144222
BP,ioos:station:wmo:42369:3,2021-06-27T14:00:00Z,27.2059,-90.2856,447.9,68.3,11144222
BP,ioos:station:wmo:42369:3,2021-06-27T14:20:00Z,27.2066,-90.2843,447.8,68.3,11144222
BP,ioos:station:wmo:42369:3,2021-06-27T14:40:00Z,27.2062,-90.2835,448.6,68.3,11144222
BP,ioos:station:wmo:42369:3,2021-06-27T15:00:00Z,27.2057,-90.2825,447.4,68.3,11144222
BP,ioos:station:wmo:42369:3,2021-06-27T15:20:00Z,27.2054,-90.2829,447.2,68.3,11144222
BP,ioos:station:wmo:42369:3,2021-06-27T15:40:00Z,27.2061,-90.2825,448.1,68.3,11144222
BP,ioos:station:wmo:42369:3,2021-06-27T16:00:00Z,27.2063,-90.2807,447.6,68.3,11144222
BP,ioos:station:wmo:42369:3,2021-06-27T16:20:00Z,27.2061,-90.2791,447.0,68.3,11144222
BP,ioos:station:wmo:42369:3,2021-06-27T16:40:00Z,27.2059,-90.2777,447.1,68.3,11144222
BP,ioos:station:wmo:42369:3,2021-06-27T17:00:00Z,27.2059,-90.2777,447.1,68.4,11144222
BP,ioos:station:wmo:42369:3,2021-06-27T17:20:00Z,27.2068,-90.2763,447.9,68.3,11144222
BP,ioos:station:wmo:42369:3,2021-06-27T17:40:00Z,27.2070,-90.2750,448.1,68.4,11144222
BP,ioos:station:wmo:42369:3,2021-06-27T18:00:00Z,27.2066,-90.2743,447.1,68.4,11144222
BP,ioos:station:wmo:42369:3,2021-06-27T18:20:00Z,27.2064,-90.2740,448.8,68.4,11144222
BP,ioos:station:wmo:42369:3,2021-06-27T18:40:00Z,27.2064,-90.2740,448.5,68.4,11144222
BP,ioos:station:wmo:42369:3,2021-06-27T19:00:00Z,27.2066,-90.2740,448.6,68.4,11144222
BP,ioos:station:wmo:42369:3,2021-06-27T19:20:00Z,27.2066,-90.2740,448.1,68.4,11144222
BP,ioos:station:wmo:42369:3,2021-06-27T19:40:00Z,27.2064,-90.2740,448.3,68.4,11144222
BP,ioos:station:wmo:42369:3,2021-06-27T20:00:00Z,27.2063,-90.2740,448.9,68.5,11144222
BP,ioos:station:wmo:42369:3,2021-06-27T20:20:00Z,27.2061,-90.2741,448.2,68.4,11144222
BP,ioos:station:wmo:42369:3,2021-06-27T20:40:00Z,27.2057,-90.2741,449.0,68.4,11144222
BP,ioos:station:wmo:42369:3,2021-06-27T21:00:00Z,27.2051,-90.2742,447.8,68.4,11144222
BP,ioos:station:wmo:42369:3,2021-06-27T21:20:00Z,27.2047,-90.2743,448.3,68.4,11144222
BP,ioos:station:wmo:42369:3,2021-06-27T21:40:00Z,27.2043,-90.2744,448.0,68.4,11144222
BP,ioos:station:wmo:42369:3,2021-06-27T22:00:00Z,27.2043,-90.2745,448.1,68.4,11144222
BP,ioos:station:wmo:42369:3,2021-06-27T22:20:00Z,27.2043,-90.2746,447.8,68.4,11144222
BP,ioos:station:wmo:42369:3,2021-06-27T22:40:00Z,27.2039,-90.2748,447.4,68.4,11144222
BP,ioos:station:wmo:42369:3,2021-06-27T23:00:00Z,27.2035,-90.2750,447.5,68.4,11144222
BP,ioos:station:wmo:42369:3,2021-06-27T23:20:00Z,27.2031,-90.2752,447.8,68.4,11144222
BP,ioos:station:wmo:42369:3,2021-06-27T23:40:00Z,27.2025,-90.2755,448.7,68.4,11144222
BP,ioos:station:wmo:42369:3,2021-06-28T00:00:00Z,27.2021,-90.2761,448.1,68.4,11144222
BP,ioos:station:wmo:42369:3,2021-06-28T00:20:00Z,27.2016,-90.2767,448.2,68.4,11144222
BP,ioos:station:wmo:42369:3,2021-06-28T00:40:00Z,27.2011,-90.2774,446.7,68.4,11144222
BP,ioos:station:wmo:42369:3,2021-06-28T01:00:00Z,27.2006,-90.2782,446.7,68.4,11144222
BP,ioos:station:wmo:42369:3,2021-06-28T01:20:00Z,27.2004,-90.2785,448.0,68.4,11144222
BP,ioos:station:wmo:42369:3,2021-06-28T01:40:00Z,27.2001,-90.2794,447.5,68.4,11144222
BP,ioos:station:wmo:42369:3,2021-06-28T02:00:00Z,27.2000,-90.2799,447.1,68.4,11144222
BP,ioos:station:wmo:42369:3,2021-06-28T02:20:00Z,27.1999,-90.2807,448.0,68.4,11144222
BP,ioos:station:wmo:42369:3,2021-06-28T02:40:00Z,27.1999,-90.2817,447.3,68.5,11144222
BP,ioos:station:wmo:42369:3,2021-06-28T03:00:00Z,27.1998,-90.2826,447.4,68.5,11144222
BP,ioos:station:wmo:42369:3,2021-06-28T03:20:00Z,27.1998,-90.2835,447.7,68.4,11144222
BP,ioos:station:wmo:42369:3,2021-06-28T03:40:00Z,27.2000,-90.2843,447.3,68.5,11144222
BP,ioos:station:wmo:42369:3,2021-06-28T04:00:00Z,27.2002,-90.2850,447.8,68.4,11144222
BP,ioos:station:wmo:42369:3,2021-06-28T04:20:00Z,27.2004,-90.2857,447.5,68.5,11144222
BP,ioos:station:wmo:42369:3,2021-06-28T04:40:00Z,27.2006,-90.2863,447.1,68.4,11144222
BP,ioos:station:wmo:42369:3,2021-06-28T05:00:00Z,27.2010,-90.2868,448.2,68.4,11144222
BP,ioos:station:wmo:42369:3,2021-06-28T05:20:00Z,27.2013,-90.2872,447.6,68.4,11144222
BP,ioos:station:wmo:42369:3,2021-06-28T05:40:00Z,27.2017,-90.2879,446.8,68.4,11144222
BP,ioos:station:wmo:42369:3,2021-06-28T06:00:00Z,27.2020,-90.2882,447.5,68.4,11144222
BP,ioos:station:wmo:42369:3,2021-06-28T06:20:00Z,27.2024,-90.2885,447.2,68.5,11144222
BP,ioos:station:wmo:42369:3,2021-06-28T06:40:00Z,27.2028,-90.2887,447.9,68.5,11144222
BP,ioos:station:wmo:42369:3,2021-06-28T07:00:00Z,27.2031,-90.2890,447.5,68.5,11144222
BP,ioos:station:wmo:42369:3,2021-06-28T07:20:00Z,27.2034,-90.2892,448.2,68.5,11144222
BP,ioos:station:wmo:42369:3,2021-06-28T07:40:00Z,27.2037,-90.2893,447.7,68.4,11144222
BP,ioos:station:wmo:42369:3,2021-06-28T08:00:00Z,27.2041,-90.2894,447.9,68.5,11144222
BP,ioos:station:wmo:42369:3,2021-06-28T08:20:00Z,27.2044,-90.2895,448.2,68.5,11144222